Regional Weather Roundup
Issued by NWS

Home | Current Version | Previous Version | Graphics & Text | Print | Product List | Glossary Off
Versions: 1 2 3 4 5 6 7 8 9 10 11 12 13 14 15 16 17 18 19 20 21 22 23 24 25 26 27 28 29 30 31 32 33 34 35 36 37 38 39 40 41 42 43 44 45 46 47 48 49 50

000
ASUS43 KTOP 220159
RWRKS

WEATHER ROUNDUP FOR KANSAS
NATIONAL WEATHER SERVICE GOODLAND KS
900 PM CDT SAT APR 21 2018

NOTE:  "FAIR" INDICATES FEW OR NO CLOUDS BELOW 12,000 FEET WITH NO
SIGNIFICANT WEATHER AND/OR OBSTRUCTIONS TO VISIBILITY.

KSZ001>006-013>018-027>032-041>047-220300-
NORTHWEST KANSAS

CITY           SKY/WX    TMP DP  RH WIND       PRES   REMARKS
GOODLAND       CLOUDY    40  38  93 N5        30.21S
HAYS           CLOUDY    44  43  96 N9        30.21R
HILL CITY      CLOUDY    44  42  93 N7        30.23R
RUSSELL        CLOUDY    45  45 100 N7        30.20R FOG
$$

KSZ061>065-074>080-084>089-220300-
SOUTHWEST KANSAS

CITY           SKY/WX    TMP DP  RH WIND       PRES   REMARKS
DODGE CITY     CLOUDY    44  41  89 N10       30.19R FOG
GREAT BEND     LGT RAIN  44  43  96 NE10      30.20R FOG
LIBERAL        CLOUDY    44  42  93 N10       30.20R
$$

KSZ066>073-081>083-090>101-220300-
SOUTHEAST KANSAS

CITY           SKY/WX    TMP DP  RH WIND       PRES   REMARKS
CHANUTE        LGT RAIN  47  45  93 N9        30.11S
COFFEYVILLE    CLOUDY    48  46  93 N7        30.10R
HUTCHINSON     RAIN      45  44  97 N9        30.17R FOG
MEDICINE LODGE   N/A     45  43  93 N8        30.16R
NEWTON         LGT RAIN  44  43  96 N13       30.16R
PARSONS        LGT RAIN  48  47  96 N6        30.10R
WICHITA INTL   LGT RAIN  46  45  96 N10       30.14R
WICHITA JABRA  LGT RAIN  45  45 100 N10       30.13S
WICHITA MCCONL LGT RAIN  45  45  99 NE13      30.13S
WINFIELD       LGT RAIN  45  45 100 N7        30.13R
$$

KSZ007>012-019>026-033>040-048>060-102>105-220300-
NORTHEAST KANSAS

CITY           SKY/WX    TMP DP  RH WIND       PRES   REMARKS
CONCORDIA      LGT RAIN  44  43  96 N5        30.21R FOG
EMPORIA        LGT RAIN  44  42  93 NW8       30.14S FOG
LAWRENCE       CLOUDY    51  43  74 W7        30.12R
MANHATTAN      LGT RAIN  47  43  86 N6        30.18S
OLATHE IND     CLOUDY    60  36  40 E6        30.12R
OLATHE EXE     CLOUDY    59  35  40 E9        30.12R
SALINA         LGT RAIN  46  45  96 NW9       30.21R FOG
TOPEKA BILLARD CLOUDY    50  44  80 W6        30.13S
TOPEKA FORBES  CLOUDY    50  44  80 NW12      30.12S
$$




USA.gov is the U.S. government's official web portal to all federal, state and local government web resources and services.